Hourly Data Report for January 27, 2020

TORONTO CITY
ONTARIO
Current Station Operator: ECCC - MSC

43°40'00.000" N
79°24'00.000" W
112.50 m
6158355
71508
XTO

Download Data

Hourly Data (January 2020)
Hourly Data Report for January 27, 2020
TIME
LST
Temp Definition
°C
Dew Point Definition
°C
Rel Hum Definition
%
Precip. Amount Definition
mm

Wind Dir Definition
10's deg

Wind Spd Definition
km/h
Visibility Definition
km
Stn Press Definition
kPa
Hmdx Definition


Wind Chill Definition


Weather Definition


00:00 1.7 -1.4 80 0.0       99.03     LegendNANA
01:00 1.9 -1.5 78 0.0       99.01     LegendNANA
02:00 2.0 -1.5 77 0.0       99.03     LegendNANA
03:00 2.1 -1.4 77 0.0       99.07     LegendNANA
04:00 1.9 -1.4 78 0.0       99.06     LegendNANA
05:00 1.9 -1.4 78 0.0       99.10     LegendNANA
06:00 1.9 -1.6 77 0.0       99.13     LegendNANA
07:00 1.6 -1.5 80 0.0       99.20     LegendNANA
08:00 1.4 -1.8 79 0.0       99.27     LegendNANA
09:00 1.3 -1.8 80 0.0       99.33     LegendNANA
10:00 1.6 -2.9 72 0.0       99.37     LegendNANA
11:00 1.1 -3.1 74 0.0       99.43     LegendNANA
12:00 1.2 -3.4 71 0.0       99.43     LegendNANA
13:00 1.7 -2.6 73 0.0       99.41     LegendNANA
14:00 2.0 -3.7 66 0.0       99.38     LegendNANA
15:00 1.9 -3.4 68 0.0       99.44     LegendNANA
16:00 1.6 -3.2 71 0.0       99.49     LegendNANA
17:00 1.4 -3.4 70 0.0       99.54     LegendNANA
18:00 1.1 -3.4 72 0.0       99.59     LegendNANA
19:00 1.0 -3.3 73 0.0       99.65     LegendNANA
20:00 0.9 -3.1 74 0.0       99.69     LegendNANA
21:00 0.9 -2.9 76 0.0       99.70     LegendNANA
22:00 1.2 -2.8 75 0.0       99.72     LegendNANA
23:00 1.1 -2.8 75 0.0       99.72     LegendNANA

Notes on Data Quality.

Legend

  • E = Estimated
  • M = Missing
  • NA = Not Available*
  • [empty] = Indicates an unobserved value
Date modified: